sat.trackr.live / text

‹ back to catalog

COSMOS 2386

NORAD 27057 · 2001-058C

PAYLOAD ACTIVE UNKNOWN

§ Identity

Operator
Country
CIS
Launch date
2001-12-28
Launch site
PLMSC
Launch vehicle
Mass (kg)
RCS (m²)
0.90

External: N2YO · Heavens-Above · Gunter

§ Orbital elements

Epoch: 2026-05-25T04:07:40.278144Z

Period
114.14 min
Inclination
82.5453°
Eccentricity
0.0001585
Mean motion
12.61616273 rev/d
Perigee alt
1,415.0 km
Apogee alt
1,417.5 km
Semi-major
7,794.4 km
B*
-8.6551e-6
RAAN
228.8955°
Arg perigee
109.9953°
Mean anomaly
250.1309°
Rev number
12,360

§ Raw data

COSMOS 23861 27057U 01058C   26145.17199396  .00000009  00000+0 -86551-5 0  99972 27057  82.5453 228.8955 0001585 109.9953 250.1309 12.61616273123601

JSON: /api/v1/satellites/27057 · /tle

For live sub-satellite position, see the globe view (requires WebGL).

§ Visibility from observer

Set your observer location to see the next 7 days of passes ≥ 10°. The values pass through the URL so the page stays shareable.

No JS? Fill the form by hand. The geolocation button needs JavaScript.